Location: Madrid
(40.4000°N, 3.6830°W)
Time: 03:59:22
(UTC+02:00)

ISS - Pass Details

Date: 01 July 2020
Orbit: 417 x 421 km, 51.6° (Epoch: 09 July)

Event Time Altitude Azimuth Distance (km) Brightness Sun altitude
Exits shadow 05:40:39 13° 262° (W) 1,333 -1.7 -11.0°
Maximum altitude 05:43:23 39° 330° (NNW) 643 -2.7 -10.7°
Drops below altitude 10° 05:46:34 10° 41° (NE) 1,497 0.6 -10.2°
Sets 05:48:46 0° 49° (NE) 2,363 2.4 -9.9°
